Weather History for Salzburg-Flughafen, Austria

Change the Weather History Date:

Monday, May 27, 2013

  Actual Average Record
Temperature  
Mean Temperature 47 °F -  
Max Temperature 52 °F 70 °F - ()
Min Temperature 42 °F 51 °F - ()
Degree Days  
Heating Degree Days 18    
Moisture  
Dew Point 45 °F    
Average Humidity 94    
Maximum Humidity 100    
Minimum Humidity 86    
Precipitation  
Precipitation 0.12 in 0.20 in - ()
Sea Level Pressure  
Sea Level Pressure 29.86 in    
Wind  
Wind Speed 4 mph ()    
Max Wind Speed 9 mph    
Max Gust Speed -    
Visibility 6.6 miles    
Events Rain    
T = Trace of Precipitation, MM = Missing Value Source: Averaged Metar Reports

Daily Weather History Graph

Daily Weather History Graph

Search for Another Location

Airport:

Trip Planner

Search our weather history database for the weather conditions in past years. The results will help you decide how hot, cold, wet, or windy it might be!

Date:

Astronomy

May. 27, 2013 Rise Set
Actual Time 5:17 AM CEST 8:53 PM CEST
Civil Twilight 4:38 AM CEST 9:32 PM CEST
Nautical Twilight 3:46 AM CEST 10:24 PM CEST
Astronomical Twilight 2:35 AM CEST 11:37 PM CEST
Moon 11:14 PM CEST (5/27) 7:37 AM CEST (5/27)
Length of Visible Light 16h 54m
Length of Day
15h 36m
Waning Gibbous, 93% of the Moon is Illuminated
May 27
Waning Gibbous
May 31
Last Quarter
Jun 8
New
Jun 16
First Quarter
Jun 23
Full

Hourly Weather History & Observations

Time (CEST) Temp. Windchill Dew Point Humidity Pressure Visibility Wind Dir Wind Speed Gust Speed Precip Events Conditions
12:20 AM 44.6 °F - 41.0 °F 87% 29.86 in 6.2 mi Variable 1.2 mph - N/A Rain Light Rain
12:50 AM 42.8 °F - 42.8 °F 100% 29.86 in 6.2 mi Variable 2.3 mph - N/A Rain Light Rain
1:20 AM 42.8 °F - 42.8 °F 100% 29.86 in 6.2 mi Variable 2.3 mph - N/A Rain Rain
1:50 AM 42.8 °F - 41.0 °F 93% 29.86 in 6.2 mi Variable 2.3 mph - N/A Rain Rain
2:00 AM 43 °F - 42 °F 93% 29.89 in 13 mi 2.2 mph - -  
2:20 AM 42.8 °F - 41.0 °F 93% 29.86 in 6.2 mi Variable 1.2 mph - N/A Rain Rain
2:50 AM 42.8 °F - 41.0 °F 93% 29.83 in 6.2 mi SE 2.3 mph - N/A Rain Light Rain
3:20 AM 42.8 °F - 42.8 °F 100% 29.83 in 6.2 mi Variable 2.3 mph - N/A Rain Rain
3:50 AM 42.8 °F 41.1 °F 42.8 °F 100% 29.83 in 6.2 mi SSE 3.5 mph - N/A Rain Rain
4:20 AM 42.8 °F 41.1 °F 42.8 °F 100% 29.83 in 6.2 mi South 3.5 mph - N/A Rain Rain
4:50 AM 42.8 °F 41.1 °F 42.8 °F 100% 29.83 in 6.2 mi SSE 3.5 mph - N/A Rain Rain
5:00 AM 43 °F - 42 °F 95% 29.86 in 9 mi SSE 4.5 mph - - Rain Rain
5:20 AM 42.8 °F 40.1 °F 42.8 °F 100% 29.83 in 6.2 mi SSE 4.6 mph - N/A Rain Rain
5:50 AM 42.8 °F 39.3 °F 42.8 °F 100% 29.83 in 6.2 mi SE 5.8 mph - N/A Rain Rain
6:20 AM 42.8 °F 40.1 °F 42.8 °F 100% 29.83 in 6.2 mi SE 4.6 mph - N/A Rain Light Rain
6:50 AM 42.8 °F 39.3 °F 42.8 °F 100% 29.83 in 6.2 mi SE 5.8 mph - N/A Rain Light Rain
7:20 AM 42.8 °F 40.1 °F 42.8 °F 100% 29.86 in 6.2 mi ESE 4.6 mph - N/A Rain Light Rain
7:50 AM 42.8 °F 40.1 °F 42.8 °F 100% 29.86 in 6.2 mi SSE 4.6 mph - N/A Rain Rain
8:00 AM 43 °F - 42 °F 96% 29.89 in 9 mi SSE 4.5 mph - - Rain Rain
8:20 AM 42.8 °F 41.1 °F 42.8 °F 100% 29.86 in 6.2 mi SE 3.5 mph - N/A Rain Rain
8:50 AM 44.6 °F - 42.8 °F 93% 29.86 in 6.2 mi Variable 1.2 mph - N/A Rain Rain
9:20 AM 44.6 °F 43.1 °F 42.8 °F 93% 29.86 in 6.2 mi SSE 3.5 mph - N/A Rain Rain
9:50 AM 44.6 °F 43.1 °F 44.6 °F 100% 29.86 in 6.2 mi SSE 3.5 mph - N/A Rain Light Rain
10:20 AM 44.6 °F 42.2 °F 44.6 °F 100% 29.89 in 6.2 mi SSE 4.6 mph - N/A Rain Light Rain
10:50 AM 44.6 °F 40.7 °F 44.6 °F 100% 29.89 in 6.2 mi SSE 6.9 mph - N/A Rain Light Rain
11:00 AM 45 °F - 44 °F 97% 29.92 in 9 mi SSE 6.7 mph - - Rain Light Rain
11:20 AM 44.6 °F 41.4 °F 44.6 °F 100% 29.89 in 6.2 mi SE 5.8 mph - N/A Rain Light Rain
11:50 AM 46.4 °F 42.9 °F 44.6 °F 93% 29.89 in 6.2 mi South 6.9 mph - N/A Rain Rain
12:20 PM 46.4 °F 43.5 °F 44.6 °F 93% 29.89 in 6.2 mi SSE 5.8 mph - N/A Rain Light Rain
12:50 PM 46.4 °F 42.9 °F 44.6 °F 93% 29.89 in 6.2 mi SE 6.9 mph - N/A Rain Light Rain
1:20 PM 46.4 °F 41.9 °F 44.6 °F 93% 29.89 in 6.2 mi SSE 9.2 mph - N/A Rain Light Rain
1:50 PM 46.4 °F 42.4 °F 44.6 °F 93% 29.89 in 6.2 mi SE 8.1 mph - N/A Rain Light Rain
2:00 PM 47 °F - 45 °F 91% 29.91 in 22 mi SE 8.9 mph - - Rain Light Rain
2:20 PM 48.2 °F - 44.6 °F 87% 29.86 in 6.2 mi SSE 9.2 mph - N/A Rain Light Rain
2:50 PM 48.2 °F - 44.6 °F 87% 29.86 in 6.2 mi SE 4.6 mph - N/A   Mostly Cloudy
3:20 PM 48.2 °F - 46.4 °F 93% 29.86 in 6.2 mi Variable 4.6 mph - N/A   Mostly Cloudy
3:50 PM 50.0 °F - 46.4 °F 87% 29.86 in 6.2 mi SE 4.6 mph - N/A   Mostly Cloudy
4:20 PM 50.0 °F - 46.4 °F 87% 29.86 in 6.2 mi SSE 5.8 mph - N/A   Mostly Cloudy
4:50 PM 50.0 °F - 46.4 °F 87% 29.86 in 6.2 mi SSE 4.6 mph - N/A   Mostly Cloudy
5:00 PM 50 °F - 47 °F 86% 29.88 in 25 mi SSE 4.5 mph - -   Partly Cloudy
5:20 PM 50.0 °F - 46.4 °F 87% 29.86 in 6.2 mi SSE 5.8 mph - N/A   Mostly Cloudy
5:50 PM 50.0 °F - 48.2 °F 94% 29.86 in 6.2 mi SSE 5.8 mph - N/A   Mostly Cloudy
6:20 PM 51.8 °F - 48.2 °F 88% 29.86 in 6.2 mi ENE 3.5 mph - N/A   Mostly Cloudy
6:50 PM 51.8 °F - 48.2 °F 88% 29.86 in 6.2 mi Variable 2.3 mph - N/A   Mostly Cloudy
7:20 PM 51.8 °F - 48.2 °F 88% 29.86 in 6.2 mi Variable 2.3 mph - N/A   Mostly Cloudy
7:50 PM 51.8 °F - 48.2 °F 88% 29.86 in 6.2 mi Variable 1.2 mph - N/A   Mostly Cloudy
8:00 PM 51 °F - 49 °F 88% 29.89 in 22 mi 2.2 mph - -   Partly Cloudy
8:20 PM 50.0 °F - 48.2 °F 94% 29.86 in 6.2 mi South 3.5 mph - N/A   Mostly Cloudy
8:50 PM 50.0 °F - 50.0 °F 100% 29.86 in 6.2 mi South 3.5 mph - N/A   Mostly Cloudy
9:20 PM 50.0 °F - 48.2 °F 94% 29.86 in 6.2 mi SSE 4.6 mph - N/A   Mostly Cloudy
9:50 PM 48.2 °F - 48.2 °F 100% 29.86 in 6.2 mi SSE 3.5 mph - N/A   Mostly Cloudy
10:20 PM 48.2 °F - 46.4 °F 93% 29.86 in 6.2 mi South 4.6 mph - N/A   Mostly Cloudy
10:50 PM 48.2 °F - 46.4 °F 93% 29.86 in 6.2 mi South 5.8 mph - N/A   Mostly Cloudy
11:00 PM 48 °F - 46 °F 91% 29.90 in 12 mi South 6.7 mph - -   Scattered Clouds
11:20 PM 46.4 °F 42.9 °F 44.6 °F 93% 29.86 in - South 6.9 mph - N/A   Clear
11:50 PM 44.6 °F 40.7 °F 44.6 °F 100% 29.86 in 6.2 mi SSE 6.9 mph - N/A   Overcast